Total_Precipitation_Accumulation
1.01 1.02 1.01 0.99 0.90 0.89 0.94 0.95 0.94 0.95 0.99 0.98 0.89 0.82 0.89 0.89 0.85 0.91 0.96 1.02 1.10 1.25 1.40 1.52 1.67 1.91 2.19 2.21 2.16 2.03 1.89 1.71 1.46 1.32 1.11 1.01 1.26 1.34 1.30 1.16 1.12 1.07 0.87
0.93 0.96 0.95 0.85 0.81 0.78 0.76 0.73 0.66 0.64 0.67 0.76 0.84 0.79 0.78 0.80 0.82 0.88 0.90 0.94 0.96 1.05 1.14 1.26 1.43 1.72 2.06 2.27 2.35 2.26 2.09 1.92 1.75 1.59 1.27 1.03 1.12 1.42 1.55 1.46 1.23 1.09 0.98
1.01 0.87 0.78 0.74 0.71 0.69 0.61 0.57 0.55 0.50 0.50 0.54 0.63 0.64 0.73 0.80 0.82 0.84 0.87 0.90 0.92 1.01 1.15 1.20 1.25 1.44 1.63 1.85 2.03 2.16 2.15 2.11 2.05 1.79 1.51 1.25 1.15 1.26 1.49 1.50 1.40 1.36 1.18
1.12 1.01 0.86 0.77 0.70 0.64 0.57 0.54 0.51 0.49 0.52 0.58 0.70 0.74 0.70 0.67 0.72 0.83 0.88 0.83 0.81 0.86 0.95 1.04 1.13 1.17 1.32 1.46 1.58 1.76 1.97 2.20 2.26 2.10 1.84 1.52 1.38 1.24 1.33 1.48 1.55 1.47 1.37
1.09 1.08 0.92 0.86 0.79 0.65 0.60 0.60 0.58 0.61 0.57 0.59 0.70 0.81 0.87 0.82 0.79 0.88 0.86 0.84 0.83 0.82 0.87 0.87 0.93 0.95 1.01 1.18 1.23 1.44 1.76 2.02 2.13 2.19 2.08 1.78 1.51 1.31 1.11 1.18 1.42 1.61 1.58
0.75 0.82 0.78 0.69 0.61 0.58 0.57 0.55 0.52 0.51 0.47 0.47 0.51 0.58 0.68 0.72 0.92 0.88 0.73 0.69 0.75 0.81 0.86 0.86 0.87 0.81 0.79 0.85 0.98 1.09 1.38 1.59 1.73 1.80 1.82 1.67 1.47 1.33 1.27 1.22 1.25 1.36 1.44
0.47 0.56 0.55 0.49 0.43 0.41 0.45 0.45 0.43 0.39 0.40 0.38 0.37 0.38 0.44 0.59 0.67 0.51 0.50 0.56 0.70 0.82 0.89 0.91 0.87 0.82 0.85 0.86 0.87 0.87 0.93 1.11 1.32 1.52 1.53 1.44 1.50 1.41 1.32 1.22 1.22 1.21 1.20
0.23 0.26 0.28 0.28 0.27 0.29 0.31 0.32 0.33 0.32 0.30 0.29 0.37 0.44 0.46 0.47 0.53 0.43 0.42 0.53 0.73 0.86 0.86 0.82 0.88 0.88 0.90 0.96 0.88 0.94 0.90 0.88 0.96 1.01 1.16 1.36 1.50 1.64 1.60 1.49 1.49 1.42 1.32
0.06 0.08 0.10 0.12 0.14 0.17 0.18 0.21 0.30 0.33 0.34 0.37 0.49 0.56 0.50 0.42 0.46 0.47 0.52 0.67 0.80 0.88 0.85 0.84 0.92 0.95 1.06 1.08 0.99 1.04 1.00 0.97 0.93 1.03 1.12 1.23 1.32 1.42 1.54 1.53 1.49 1.46 1.35
0.00 0.00 0.01 0.02 0.03 0.05 0.08 0.11 0.17 0.24 0.31 0.39 0.41 0.38 0.38 0.44 0.50 0.49 0.61 0.80 0.92 1.02 0.98 0.97 1.16 1.10 1.05 0.98 0.95 1.09 1.07 0.92 0.84 0.88 0.93 1.00 1.05 1.15 1.25 1.26 1.35 1.41 1.34
0.00 0.00 0.00 0.00 0.00 0.01 0.02 0.03 0.06 0.11 0.15 0.18 0.19 0.23 0.30 0.46 0.52 0.55 0.73 0.82 0.88 1.04 1.07 1.03 0.96 1.09 1.01 0.92 0.90 0.95 1.09 0.96 0.88 0.89 0.90 0.91 0.93 0.96 1.01 1.07 1.16 1.24 1.28
0.00 0.00 0.01 0.01 0.00 0.01 0.02 0.02 0.02 0.04 0.07 0.10 0.13 0.17 0.23 0.31 0.39 0.45 0.58 0.69 0.77 0.95 1.03 0.94 0.85 1.08 1.02 0.92 0.82 0.84 0.96 1.01 1.00 1.01 0.98 0.92 0.86 0.83 0.81 0.87 0.96 1.05 1.12
0.00 0.00 0.00 0.01 0.01 0.01 0.01 0.02 0.02 0.03 0.06 0.08 0.12 0.19 0.25 0.30 0.31 0.37 0.44 0.53 0.64 0.82 0.88 0.90 0.92 0.96 0.89 0.83 0.90 0.91 0.91 0.93 1.01 1.04 0.93 0.77 0.71 0.70 0.74 0.83 0.94 1.03 1.09
0.00 0.00 0.00 0.01 0.01 0.01 0.02 0.02 0.03 0.03 0.06 0.10 0.17 0.23 0.27 0.30 0.31 0.37 0.45 0.49 0.59 0.68 0.69 0.73 0.77 0.75 0.75 0.78 0.83 0.90 0.93 0.95 0.95 0.90 0.78 0.65 0.63 0.65 0.67 0.70 0.81 0.94 1.08
0.00 0.00 0.01 0.01 0.02 0.02 0.02 0.02 0.03 0.03 0.06 0.12 0.16 0.19 0.21 0.23 0.28 0.35 0.47 0.54 0.65 0.75 0.76 0.70 0.72 0.72 0.71 0.71 0.74 0.75 0.77 0.76 0.76 0.73 0.69 0.67 0.67 0.66 0.64 0.64 0.68 0.72 0.75
0.00 0.00 0.00 0.01 0.02 0.03 0.04 0.03 0.02 0.02 0.03 0.05 0.07 0.10 0.17 0.20 0.18 0.20 0.30 0.43 0.59 0.80 1.02 1.03 1.03 0.97 0.87 0.77 0.68 0.59 0.55 0.56 0.59 0.64 0.66 0.63 0.61 0.63 0.66 0.67 0.69 0.70 0.67
0.00 0.00 0.00 0.01 0.02 0.03 0.05 0.09 0.10 0.07 0.03 0.03 0.04 0.07 0.13 0.18 0.17 0.22 0.27 0.32 0.44 0.73 1.08 1.09 1.07 0.92 0.77 0.70 0.59 0.46 0.39 0.39 0.45 0.47 0.51 0.54 0.53 0.53 0.58 0.61 0.59 0.62 0.63
0.00 0.01 0.01 0.02 0.03 0.03 0.04 0.09 0.19 0.25 0.19 0.09 0.04 0.05 0.11 0.19 0.24 0.32 0.41 0.51 0.57 0.69 0.80 0.79 0.70 0.62 0.54 0.45 0.42 0.37 0.30 0.32 0.37 0.38 0.40 0.41 0.41 0.44 0.47 0.53 0.53 0.51 0.53
0.01 0.01 0.04 0.06 0.04 0.03 0.05 0.12 0.18 0.11 0.10 0.12 0.11 0.07 0.08 0.11 0.16 0.23 0.34 0.45 0.46 0.48 0.47 0.42 0.35 0.30 0.29 0.26 0.26 0.26 0.24 0.25 0.28 0.32 0.33 0.32 0.32 0.35 0.38 0.42 0.45 0.48 0.46
0.00 0.01 0.03 0.08 0.09 0.05 0.06 0.11 0.09 0.08 0.10 0.12 0.13 0.11 0.11 0.12 0.14 0.17 0.21 0.25 0.25 0.25 0.25 0.24 0.21 0.18 0.19 0.18 0.19 0.19 0.19 0.20 0.22 0.25 0.25 0.26 0.28 0.29 0.31 0.34 0.37 0.38 0.37
0.00 0.01 0.02 0.05 0.08 0.05 0.06 0.07 0.06 0.07 0.09 0.11 0.10 0.10 0.12 0.16 0.17 0.17 0.16 0.15 0.17 0.18 0.20 0.21 0.19 0.19 0.19 0.19 0.20 0.21 0.23 0.23 0.21 0.23 0.23 0.21 0.24 0.27 0.28 0.30 0.32 0.32 0.34
0.01 0.01 0.02 0.05 0.06 0.04 0.04 0.06 0.08 0.07 0.07 0.09 0.10 0.10 0.12 0.18 0.18 0.17 0.15 0.14 0.14 0.15 0.21 0.24 0.25 0.26 0.23 0.21 0.22 0.24 0.24 0.24 0.22 0.21 0.21 0.21 0.19 0.21 0.24 0.26 0.28 0.30 0.30
0.03 0.03 0.03 0.05 0.06 0.05 0.04 0.05 0.09 0.11 0.09 0.09 0.11 0.10 0.11 0.14 0.16 0.19 0.19 0.19 0.21 0.23 0.21 0.22 0.26 0.27 0.25 0.23 0.23 0.26 0.29 0.28 0.25 0.23 0.23 0.21 0.19 0.18 0.20 0.21 0.22 0.25 0.26
0.03 0.03 0.03 0.05 0.06 0.06 0.06 0.06 0.07 0.07 0.09 0.12 0.13 0.12 0.14 0.16 0.17 0.16 0.17 0.23 0.25 0.23 0.22 0.21 0.22 0.25 0.26 0.26 0.25 0.26 0.28 0.29 0.28 0.27 0.25 0.25 0.22 0.20 0.20 0.21 0.24 0.27 0.32
0.04 0.04 0.05 0.06 0.08 0.08 0.08 0.09 0.08 0.08 0.11 0.14 0.12 0.12 0.12 0.13 0.15 0.13 0.15 0.20 0.22 0.20 0.20 0.20 0.21 0.23 0.24 0.25 0.26 0.26 0.30 0.32 0.32 0.29 0.28 0.29 0.28 0.25 0.23 0.26 0.31 0.35 0.39
0.06 0.06 0.07 0.08 0.09 0.10 0.11 0.12 0.12 0.12 0.13 0.13 0.12 0.14 0.15 0.16 0.17 0.16 0.16 0.17 0.19 0.20 0.19 0.20 0.21 0.21 0.22 0.23 0.26 0.29 0.30 0.28 0.28 0.29 0.30 0.32 0.34 0.31 0.28 0.27 0.29 0.32 0.36